Find Choma

NORAD ID: 33315 Int'l Des: 2008-040 Owner: REYE Country: D operational
LEOCIRCULARRETROGRADESSO

实时位置

正在加载3D地球...

关于 Choma

正在加载描述...

即将过境

Passes for default location (London). Set your location on the main map for personalized predictions.

高度历史

Loading altitude history...

两行轨道根数

1 33315U 08040D 26105.81005816 .00000762 00000-0 55301-4 0 9993
2 33315 97.3896 138.5110 0009074 247.2503 112.7767 15.06660445956885
Epoch: Apr 15, 2026 • Age: 7 hours

当前状态

高度 548.3 km
速度 7.59 km/s
星下点 17.79°N, 78.89°E
发射日期 Aug 29, 2008
运行时间 17.6 years
类型 other

技术详情

分类 Payload
质量 152.00 kg
干质量 140.00 kg
总质量 152.00 kg
长度 1.00 m
直径 0.80 m
跨度 1.00 m
形状 Hept Cyl
制造商 SSTL
平台类型 SSTL-150
阶段状态 In Orbit
所有者/国家 REYE/D

Most Searched